COSMOS 2251 DEB

Satellite information

Favourite Embed

Satellite Type and Status

DEBRISIN ORBIT

Key statistics

Satellite COSMOS 2251 DEB at a glance.

Uptime

11709

Days in orbit

Revolutions

≈ 14.4

Per day

Orbit

LEO

Low Earth Orbit

Inclination

74.0

Latest

Satellite identification and parameters

Extended collection of information and parameters for COSMOS 2251 DEB.

Object identification

Identified? True

Debris? True

Object name: COSMOS 2251 DEB

International designator: 1993-036KC

Object number (NORAD): 34065

Object ID (CCSDS): 34065

Country: COMMONWEALTH OF INDEPENDENT STATES (CIS)

Current information (Y/N): Y

RCS size: SMALL

Orbital parameters

Period: 100.149 minutes

Inclination: 74.0339 deg

SMA: 7143.714 km

Apoapsis: 777.968 km

Periapsis: 753.19 km

RAAN: 191.5029 deg

Eccentricy: 0.0017343

Argument of periapsis: 328.5145 deg

Mean anomaly: 155.2939 deg

Mean motion: 14.37860198 rev/day

Mean motion (dot): 0.00000323 rev/day2

B* drag term: 0.0001157 1/REarth

Two-line elements (TLE)

Creation date: July 6, 2025, 6:05 p.m.

Reference frame: TEME

Reference center: EARTH

Epoch: July 6, 2025, 10:25 a.m. UTC

TLE line 0: 0 COSMOS 2251 DEB

TLE line 1: 1 34065U 93036KC 25187.43419169 .00000323 00000-0 11570-3 0 9994

TLE line 2: 2 34065 74.0339 191.5029 0017343 328.5145 155.2939 14.37860198859158

Live tracking on map

Real-time ground track for satellite COSMOS 2251 DEB.

In-orbit conjunctions

A list of the most updated potential collisions computed for object COSMOS 2251 DEB.

Target Orbit TCA Probability of collision Miss distance Type
CZ-6A DEB LEO 2024-12-02 13:05:51 0.0001040658 726.0 (m) DEBRIS
SL-8 DEB LEO 2024-09-15 12:32:50 0.0001452998 276.0 (m) DEBRIS
CZ-6A DEB SSO 2024-08-23 16:29:29 0.0002219023 181.0 (m) DEBRIS

Associated space launch

Military communications satellite. Destroyed in a collision with Iridium 33.

COSMOS 2251 DEB was lifted into orbit during the mission ‘Kosmos-3M | Strela-2M 51’, on board a Kosmos-3M space rocket.

The launch took place on June 16, 1993, 4:17 a.m. from 132/1 (132L).

For more information about the launch, click the button.

Launch to space Kosmos-3M | Strela-2M 51
Kosmos-3M | Strela-2M 51

Agency: N/A

Status: Launch Successful

Launch date: June 16, 1993, 4:17 a.m. UTC

Rocket: Kosmos-3M

Launch pad: 132/1 (132L)

Location: Plesetsk Cosmodrome, Russian Federation

...

Latest news about this satellite

There are no fresh news available about this satellite. Check back as we update our databases every day.


Newsletter sign-up

Weekly statistics, charts and insights to help you stay on top of the space industry.